Location: Cutler
(25.6150°N, 80.3110°W)
Time: 02:24:03
(UTC-04:00)

Cosmos 2360 Rocket - Visible Passes

Search period start: 21 August 2017 00:00
Search period end: 31 August 2017 00:00
Orbit: 835 x 844 km, 71.0° (Epoch: 20 August)

Date Brightness Start Highest point End Pass type
(mag) Time Alt. Az. Time Alt. Az. Time Alt. Az.
21 Aug 2.8 21:45:45 10° SSW 21:51:14 54° WNW 21:56:45 10° N visible
22 Aug 2.7 21:30:01 10° SSW 21:35:34 59° WNW 21:41:07 10° N visible
23 Aug 2.6 21:14:19 10° SSW 21:19:53 63° WNW 21:25:28 10° N visible
24 Aug 5.3 06:18:42 10° NNE 06:21:43 15° ENE 06:24:42 10° E visible
24 Aug 2.5 20:58:36 10° SSW 21:04:12 69° WNW 21:09:49 10° NNE visible
25 Aug 5.4 06:03:20 10° NNE 06:05:59 13° ENE 06:08:38 10° E visible
25 Aug 2.4 20:42:54 10° SSW 20:48:32 75° WNW 20:54:09 10° NNE visible
26 Aug 5.5 05:48:03 10° NE 05:50:16 12° ENE 05:52:29 10° E visible
26 Aug 2.3 20:27:14 10° SSW 20:32:51 81° WNW 20:38:29 10° NNE visible
27 Aug 5.6 05:32:53 10° NE 05:34:33 11° ENE 05:36:13 10° ENE visible
27 Aug 2.3 20:11:33 10° SSW 20:17:11 87° WNW 20:22:50 10° NNE visible
28 Aug 5.7 05:18:05 10° NE 05:18:49 10° ENE 05:19:34 10° ENE visible
30 Aug 2.2 06:26:17 10° NNW 06:31:55 86° WSW 06:37:33 10° SSE visible
30 Aug 5.7 21:14:04 10° WNW 21:14:37 10° WNW 21:15:10 10° NW visible
